Rotterdam, Netherlands

4:28 AM CEST on October 17, 2017 (GMT +0200)
Rotterdam

Weather History for EHRD - March, 2013

Change the Weather History Date:

Tuesday, March 5, 2013

  Actual Average Record
Temperature  
Mean Temperature 48 °F -  
Max Temperature 61 °F 49 °F 61 °F (2013)
Min Temperature 35 °F 37 °F 23 °F (2005)
Degree Days  
Heating Degree Days 17    
Moisture  
Dew Point 33 °F    
Average Humidity 56    
Maximum Humidity 81    
Minimum Humidity 27    
Precipitation  
Precipitation 0.00 in - - ()
Sea Level Pressure  
Sea Level Pressure 29.76 in    
Wind  
Wind Speed 7 mph ()    
Max Wind Speed 15 mph    
Max Gust Speed 24 mph    
Visibility 6.9 miles    
Events      
Averages and records for this station are not official NWS values.
T = Trace of Precipitation, MM = Missing Value Source: Averaged Metar Reports

Daily Weather History Graph

Daily Weather History Graph

Search for Another Location

Airport or City:

Trip Planner

Search our weather history database for the weather conditions in past years. The results will help you decide how hot, cold, wet, or windy it might be!

Date:

Astronomy

Mar. 05, 2013 Rise Set
Actual Time 7:18 AM CET 6:29 PM CET
Civil Twilight 6:45 AM CET 7:03 PM CET
Nautical Twilight 6:06 AM CET 7:42 PM CET
Astronomical Twilight 5:26 AM CET 8:21 PM CET
Moon 2:48 AM CET (3/5) 11:19 AM CET (3/5)
Length of Visible Light 12h 17m
Length of Day
11h 10m
Last Quarter, 44% of the Moon is Illuminated
Mar 5
Last Quarter
Mar 11
New
Mar 19
First Quarter
Mar 27
Full
Apr 3
Last Quarter

Hourly Weather History & Observations

Time (CET) Temp. Windchill Dew Point Humidity Pressure Visibility Wind Dir Wind Speed Gust Speed Precip Events Conditions
12:25 AM 44.6 °F 41.4 °F 30.2 °F 57% 29.86 in 6.2 mi ESE 5.8 mph - N/A   Unknown
12:55 AM 44.6 °F 42.2 °F 30.2 °F 57% 29.86 in 6.2 mi ESE 4.6 mph - N/A   Unknown
1:00 AM 43 °F - 31 °F 50% 29.86 in 17 mi ESE 4.5 mph - -   Partly Cloudy
1:25 AM 41.0 °F 38.0 °F 30.2 °F 65% 29.86 in 6.2 mi ESE 4.6 mph - N/A   Unknown
1:55 AM 35.6 °F 31.7 °F 28.4 °F 75% 29.86 in 6.2 mi East 4.6 mph - N/A   Unknown
2:25 AM 39.2 °F 35.0 °F 30.2 °F 70% 29.83 in 6.2 mi East 5.8 mph - N/A   Unknown
2:55 AM 39.2 °F 34.2 °F 30.2 °F 70% 29.83 in 6.2 mi ESE 6.9 mph - N/A   Unknown
3:25 AM 35.6 °F 30.7 °F 30.2 °F 81% 29.83 in 6.2 mi East 5.8 mph - N/A   Unknown
3:55 AM 39.2 °F 35.9 °F 30.2 °F 70% 29.83 in 6.2 mi ESE 4.6 mph - N/A   Unknown
4:00 AM 38 °F - 30 °F 65% 29.83 in 11 mi ESE 4.5 mph - -  
4:25 AM 39.2 °F 34.2 °F 30.2 °F 70% 29.83 in 6.2 mi SE 6.9 mph - N/A   Unknown
4:55 AM 37.4 °F 30.8 °F 30.2 °F 75% 29.83 in 6.2 mi SSE 9.2 mph - N/A   Unknown
5:25 AM 39.2 °F 33.6 °F 30.2 °F 70% 29.80 in 6.2 mi SE 8.1 mph - N/A   Unknown
5:55 AM 37.4 °F 30.8 °F 30.2 °F 75% 29.80 in 6.2 mi SSE 9.2 mph - N/A   Unknown
6:25 AM 39.2 °F 33.6 °F 30.2 °F 70% 29.80 in 6.2 mi SSE 8.1 mph - N/A   Unknown
6:55 AM 37.4 °F 30.8 °F 30.2 °F 75% 29.80 in 6.2 mi SSE 9.2 mph - N/A   Unknown
7:00 AM 38 °F - 30 °F 63% 29.81 in 9 mi SSE 8.9 mph - -   Partly Cloudy
7:25 AM 39.2 °F 33.0 °F 30.2 °F 70% 29.80 in 6.2 mi SSE 9.2 mph 24.2 mph N/A   Unknown
7:55 AM 39.2 °F 32.5 °F 30.2 °F 70% 29.80 in 6.2 mi SSE 10.4 mph - N/A   Unknown
8:25 AM 41.0 °F 34.7 °F 32.0 °F 70% 29.80 in 6.2 mi SE 10.4 mph - N/A   Unknown
8:55 AM 44.6 °F 40.7 °F 32.0 °F 61% 29.80 in 6.2 mi SE 6.9 mph - N/A   Unknown
9:25 AM 44.6 °F 38.8 °F 32.0 °F 61% 29.80 in 6.2 mi SSE 11.5 mph - N/A   Unknown
9:55 AM 46.4 °F 40.7 °F 32.0 °F 57% 29.80 in 6.2 mi SSE 12.7 mph - N/A   Unknown
10:00 AM 47 °F - 32 °F 44% 29.80 in 10 mi SSE 11.2 mph - -  
10:25 AM 48.2 °F - 33.8 °F 58% 29.80 in 6.2 mi South 11.5 mph - N/A   Unknown
10:55 AM 50.0 °F - 33.8 °F 54% 29.77 in 6.2 mi SSE 10.4 mph - N/A   Unknown
11:25 AM 51.8 °F - 33.8 °F 50% 29.77 in 6.2 mi South 11.5 mph - N/A   Unknown
11:55 AM 53.6 °F - 35.6 °F 51% 29.77 in 6.2 mi SSE 10.4 mph - N/A   Unknown
12:25 PM 55.4 °F - 33.8 °F 44% 29.77 in 6.2 mi SSE 10.4 mph - N/A   Unknown
12:55 PM 57.2 °F - 35.6 °F 44% 29.77 in 6.2 mi South 11.5 mph - N/A   Unknown
1:25 PM 57.2 °F - 33.8 °F 41% 29.74 in 6.2 mi South 10.4 mph - N/A   Unknown
1:55 PM 59.0 °F - 33.8 °F 39% 29.74 in 6.2 mi SSE 10.4 mph - N/A   Unknown
2:25 PM 59.0 °F - 35.6 °F 42% 29.74 in 6.2 mi SSE 11.5 mph - N/A   Unknown
2:55 PM 60.8 °F - 33.8 °F 36% 29.71 in 6.2 mi SSE 15.0 mph - N/A   Unknown
3:25 PM 60.8 °F - 35.6 °F 39% 29.71 in 6.2 mi South 15.0 mph - N/A   Unknown
3:55 PM 60.8 °F - 35.6 °F 39% 29.71 in 6.2 mi South 12.7 mph - N/A   Unknown
4:00 PM 62 °F - 37 °F 27% 29.71 in 11 mi South 13.4 mph - -  
4:25 PM 62.6 °F - 37.4 °F 39% 29.68 in 6.2 mi SSE 10.4 mph - N/A   Unknown
4:55 PM 60.8 °F - 37.4 °F 42% 29.68 in 6.2 mi South 10.4 mph - N/A   Unknown
5:25 PM 59.0 °F - 37.4 °F 45% 29.68 in 6.2 mi South 6.9 mph - N/A   Unknown
5:55 PM 55.4 °F - 37.4 °F 51% 29.68 in 6.2 mi SSW 3.5 mph - N/A   Unknown
6:25 PM 55.4 °F - 35.6 °F 47% 29.68 in 6.2 mi South 3.5 mph - N/A   Unknown
6:55 PM 50.0 °F - 37.4 °F 62% 29.68 in 6.2 mi Variable 2.3 mph - N/A   Unknown
7:00 PM 46 °F - 36 °F 60% 29.69 in 11 mi East 4.5 mph - -   Partly Cloudy
7:25 PM 50.0 °F - 35.6 °F 58% 29.68 in 6.2 mi ESE 5.8 mph - N/A   Unknown
7:55 PM 53.6 °F - 33.8 °F 47% 29.68 in 6.2 mi SSE 5.8 mph - N/A   Unknown
8:25 PM 53.6 °F - 33.8 °F 47% 29.68 in 6.2 mi SE 4.6 mph - N/A   Unknown
8:55 PM 53.6 °F - 33.8 °F 47% 29.68 in 6.2 mi SE 5.8 mph - N/A   Unknown
9:25 PM 51.8 °F - 33.8 °F 50% 29.68 in 6.2 mi SSE 6.9 mph - N/A   Unknown
9:55 PM 51.8 °F - 33.8 °F 50% 29.68 in 6.2 mi SSE 9.2 mph - N/A   Unknown
10:00 PM 50 °F - 35 °F 43% 29.69 in 14 mi SSE 8.9 mph - -   Scattered Clouds
10:25 PM 50.0 °F - 35.6 °F 58% 29.68 in 6.2 mi SSE 8.1 mph - N/A   Unknown
10:55 PM 50.0 °F - 35.6 °F 58% 29.68 in 6.2 mi SSE 6.9 mph - N/A   Unknown
11:25 PM 50.0 °F - 35.6 °F 58% 29.68 in 6.2 mi SSE 5.8 mph - N/A   Unknown
11:55 PM 48.2 °F - 33.8 °F 58% 29.68 in 6.2 mi SSE 4.6 mph - N/A   Unknown